| time (UTC) | temp F | wind direction | speed knots | gust knots | rain 1hr in | rain 24hr in | rain mn in | humidity % | barometer mb |
| 20260506160521 | 55 | 49 | 3.5 | 9.6 | 0.00 | 0.08 | 0.00 | 43 | 1020.0 |
| 20260506160045 | 55 | 24 | 2.6 | 9.6 | 0.00 | 0.08 | 0.00 | 40 | 1019.8 |
| 20260506155524 | 55 | 48 | 3.5 | 9.6 | 0.00 | 0.10 | 0.00 | 41 | 1019.8 |
| 20260506155022 | 55 | 59 | 2.6 | 9.6 | 0.00 | 0.10 | 0.00 | 41 | 1019.6 |
| 20260506154539 | 55 | 307 | 2.6 | 9.6 | 0.00 | 0.10 | 0.00 | 48 | 1019.5 |
| 20260506154027 | 54 | 36 | 2.6 | 7.8 | 0.00 | 0.10 | 0.00 | 47 | 1019.5 |
| 20260506153524 | 54 | 5 | 0.0 | 6.1 | 0.00 | 0.10 | 0.00 | 50 | 1019.4 |
| 20260506153035 | 54 | 25 | 1.7 | 7.8 | 0.00 | 0.10 | 0.00 | 50 | 1019.5 |
| 20260506152523 | 54 | 289 | 0.9 | 7.8 | 0.00 | 0.10 | 0.00 | 53 | 1019.4 |
| 20260506152024 | 53 | 25 | 1.7 | 7.8 | 0.00 | 0.10 | 0.00 | 54 | 1019.4 |
| 20260506151540 | 53 | 0 | 1.7 | 7.8 | 0.00 | 0.10 | 0.00 | 54 | 1019.5 |
| 20260506151021 | 53 | 26 | 0.9 | 7.8 | 0.00 | 0.10 | 0.00 | 52 | 1019.4 |
| 20260506150522 | 53 | 314 | 0.0 | 6.1 | 0.00 | 0.10 | 0.00 | 54 | 1019.4 |
| 20260506150035 | 53 | 321 | 0.9 | 7.8 | 0.00 | 0.10 | 0.00 | 54 | 1019.4 |
| 20260506145523 | 52 | 85 | 2.6 | 7.8 | 0.00 | 0.14 | 0.00 | 52 | 1019.3 |
| 20260506145022 | 52 | 327 | 0.0 | 7.0 | 0.00 | 0.14 | 0.00 | 53 | 1019.4 |
| 20260506144552 | 52 | 355 | 2.6 | 7.0 | 0.00 | 0.14 | 0.00 | 54 | 1019.4 |
| 20260506144023 | 52 | 0 | 0.9 | 8.7 | 0.00 | 0.14 | 0.00 | 57 | 1019.5 |
| 20260506143521 | 52 | 342 | 0.9 | 8.7 | 0.00 | 0.14 | 0.00 | 60 | 1019.7 |
| 20260506143036 | 51 | 293 | 0.9 | 7.0 | 0.00 | 0.14 | 0.00 | 58 | 1019.6 |
| 20260506142525 | 51 | 0 | 0.0 | 7.0 | 0.00 | 0.14 | 0.00 | 58 | 1019.6 |
| 20260506142024 | 50 | 0 | 1.7 | 6.1 | 0.00 | 0.14 | 0.00 | 60 | 1019.7 |
| 20260506141537 | 50 | 0 | 0.0 | 7.8 | 0.00 | 0.14 | 0.00 | 65 | 1019.6 |
| 20260506141024 | 50 | 275 | 0.9 | 7.8 | 0.00 | 0.14 | 0.00 | 67 | 1019.6 |
| 20260506140521 | 50 | 0 | 0.9 | 6.1 | 0.00 | 0.14 | 0.00 | 68 | 1019.4 |
| 20260506140037 | 49 | 276 | 0.9 | 7.8 | 0.00 | 0.14 | 0.00 | 67 | 1019.4 |
| 20260506135526 | 49 | 321 | 1.7 | 7.8 | 0.00 | 0.15 | 0.00 | 68 | 1019.3 |
| 20260506135024 | 49 | 0 | 1.7 | 7.8 | 0.00 | 0.15 | 0.00 | 68 | 1019.2 |
| 20260506134535 | 49 | 304 | 0.0 | 5.2 | 0.00 | 0.15 | 0.00 | 71 | 1019.0 |
| 20260506134025 | 49 | 0 | 0.9 | 6.1 | 0.00 | 0.15 | 0.00 | 69 | 1019.2 |
| 20260506133523 | 49 | 302 | 0.9 | 6.1 | 0.00 | 0.15 | 0.00 | 69 | 1018.9 |
| 20260506133036 | 49 | 283 | 1.7 | 6.1 | 0.00 | 0.15 | 0.00 | 70 | 1018.9 |
| 20260506132528 | 49 | 0 | 0.0 | 3.5 | 0.00 | 0.15 | 0.00 | 71 | 1018.9 |
| 20260506132023 | 49 | 0 | 0.0 | 3.5 | 0.00 | 0.15 | 0.00 | 72 | 1018.7 |
| 20260506131543 | 48 | 0 | 0.0 | 2.6 | 0.00 | 0.15 | 0.00 | 72 | 1018.7 |
| 20260506131027 | 48 | 0 | 0.0 | 2.6 | 0.00 | 0.15 | 0.00 | 72 | 1018.8 |
| 20260506130524 | 48 | 0 | 0.0 | 0.0 | 0.00 | 0.15 | 0.00 | 72 | 1018.5 |
| 20260506130037 | 48 | 0 | 0.0 | 0.0 | 0.00 | 0.15 | 0.00 | 71 | 1018.5 |
| 20260506125523 | 48 | 0 | 0.0 | 0.0 | 0.00 | 0.22 | 0.00 | 72 | 1018.5 |
| 20260506125023 | 47 | 0 | 0.0 | 0.0 | 0.00 | 0.22 | 0.00 | 73 | 1018.2 |
| 20260506124537 | 47 | 0 | 0.0 | 0.0 | 0.00 | 0.22 | 0.00 | 75 | 1018.2 |
| 20260506124026 | 46 | 0 | 0.0 | 0.0 | 0.00 | 0.22 | 0.00 | 76 | 1018.1 |
| 20260506123523 | 46 | 0 | 0.0 | 0.0 | 0.00 | 0.22 | 0.00 | 77 | 1018.1 |
| 20260506123036 | 46 | 0 | 0.0 | 0.0 | 0.00 | 0.22 | 0.00 | 78 | 1018.0 |
| 20260506122523 | 45 | 0 | 0.0 | 0.0 | 0.00 | 0.22 | 0.00 | 80 | 1018.0 |
| 20260506122026 | 45 | 0 | 0.0 | 0.0 | 0.00 | 0.22 | 0.00 | 81 | 1017.7 |
| 20260506121539 | 45 | 0 | 0.0 | 0.0 | 0.00 | 0.22 | 0.00 | 81 | 1017.5 |
| 20260506121024 | 44 | 0 | 0.0 | 0.0 | 0.00 | 0.22 | 0.00 | 81 | 1017.4 |
| 20260506120527 | 44 | 0 | 0.0 | 0.0 | 0.00 | 0.22 | 0.00 | 80 | 1017.2 |
| 20260506120035 | 44 | 0 | 0.0 | 0.0 | 0.00 | 0.22 | 0.00 | 80 | 1017.2 |
| 20260506115523 | 45 | 0 | 0.0 | 0.0 | 0.00 | 0.23 | 0.00 | 79 | 1017.2 |
| 20260506115023 | 45 | 0 | 0.0 | 0.0 | 0.00 | 0.23 | 0.00 | 78 | 1017.0 |
| 20260506114541 | 45 | 0 | 0.0 | 0.0 | 0.00 | 0.23 | 0.00 | 77 | 1016.9 |
| 20260506114023 | 45 | 0 | 0.0 | 0.0 | 0.00 | 0.23 | 0.00 | 75 | 1016.6 |
| 20260506113525 | 45 | 0 | 0.0 | 0.0 | 0.00 | 0.23 | 0.00 | 74 | 1016.6 |
| 20260506113035 | 46 | 0 | 0.0 | 0.0 | 0.00 | 0.23 | 0.00 | 72 | 1016.5 |
| 20260506112523 | 46 | 0 | 0.0 | 0.0 | 0.00 | 0.23 | 0.00 | 71 | 1016.5 |
| 20260506112026 | 46 | 0 | 0.0 | 0.0 | 0.00 | 0.23 | 0.00 | 70 | 1016.5 |
| 20260506111536 | 47 | 0 | 0.0 | 0.0 | 0.00 | 0.23 | 0.00 | 70 | 1016.6 |
| 20260506111026 | 47 | 0 | 0.0 | 0.0 | 0.00 | 0.23 | 0.00 | 70 | 1016.7 |
| 20260506110526 | 47 | 0 | 0.0 | 4.3 | 0.00 | 0.23 | 0.00 | 71 | 1016.9 |
| 20260506110039 | 47 | 0 | 0.0 | 7.0 | 0.00 | 0.23 | 0.00 | 72 | 1017.0 |
| 20260506105527 | 46 | 0 | 0.0 | 7.0 | 0.00 | 0.27 | 0.00 | 76 | 1017.2 |
| 20260506105025 | 46 | 0 | 0.0 | 1.7 | 0.00 | 0.27 | 0.00 | 81 | 1017.3 |
| 20260506104540 | 46 | 0 | 0.0 | 0.0 | 0.00 | 0.27 | 0.00 | 82 | 1017.3 |
| 20260506104027 | 46 | 0 | 0.0 | 0.0 | 0.00 | 0.27 | 0.00 | 82 | 1017.3 |
| 20260506103525 | 46 | 0 | 0.0 | 6.1 | 0.00 | 0.27 | 0.00 | 83 | 1017.3 |
| 20260506103039 | 46 | 0 | 0.0 | 6.1 | 0.00 | 0.27 | 0.00 | 84 | 1017.5 |
| 20260506102525 | 46 | 260 | 0.0 | 7.8 | 0.00 | 0.27 | 0.00 | 85 | 1017.5 |
| 20260506102026 | 46 | 0 | 0.0 | 7.8 | 0.00 | 0.27 | 0.00 | 86 | 1017.5 |
| 20260506101537 | 45 | 289 | 0.0 | 5.2 | 0.00 | 0.27 | 0.00 | 85 | 1017.7 |
| 20260506101025 | 45 | 305 | 0.0 | 6.1 | 0.00 | 0.27 | 0.00 | 86 | 1017.8 |
| 20260506100526 | 45 | 292 | 0.9 | 6.1 | 0.00 | 0.27 | 0.00 | 86 | 1017.8 |
| 20260506100039 | 45 | 0 | 0.0 | 7.0 | 0.00 | 0.27 | 0.00 | 86 | 1017.7 |
| 20260506095525 | 45 | 278 | 0.9 | 7.0 | 0.00 | 0.27 | 0.00 | 86 | 1017.7 |
| 20260506095024 | 45 | 0 | 0.9 | 6.1 | 0.00 | 0.27 | 0.00 | 86 | 1017.5 |
| 20260506094540 | 45 | 0 | 0.0 | 1.7 | 0.00 | 0.27 | 0.00 | 87 | 1017.2 |
| 20260506094025 | 45 | 0 | 0.0 | 1.7 | 0.00 | 0.27 | 0.00 | 87 | 1017.0 |
| 20260506093525 | 45 | 0 | 0.0 | 0.9 | 0.00 | 0.27 | 0.00 | 87 | 1016.6 |
| 20260506093035 | 45 | 0 | 0.0 | 0.0 | 0.00 | 0.27 | 0.00 | 87 | 1016.4 |
| 20260506092526 | 45 | 0 | 0.0 | 0.0 | 0.00 | 0.27 | 0.00 | 87 | 1016.2 |
| 20260506092026 | 45 | 0 | 0.0 | 0.0 | 0.00 | 0.27 | 0.00 | 87 | 1016.2 |
| 20260506091537 | 45 | 0 | 0.0 | 0.0 | 0.00 | 0.27 | 0.00 | 87 | 1016.0 |
| 20260506091025 | 45 | 0 | 0.0 | 0.0 | 0.00 | 0.27 | 0.00 | 87 | 1016.0 |
| 20260506090527 | 45 | 0 | 0.0 | 0.0 | 0.00 | 0.27 | 0.00 | 86 | 1015.9 |
| 20260506090036 | 45 | 0 | 0.0 | 0.0 | 0.00 | 0.27 | 0.00 | 86 | 1016.2 |
| 20260506085526 | 45 | 0 | 0.0 | 0.0 | 0.00 | 0.27 | 0.00 | 86 | 1016.0 |
| 20260506085025 | 45 | 0 | 0.0 | 0.0 | 0.00 | 0.27 | 0.00 | 86 | 1015.8 |
| 20260506084540 | 45 | 0 | 0.0 | 0.0 | 0.00 | 0.27 | 0.00 | 86 | 1015.8 |
| 20260506084023 | 45 | 0 | 0.0 | 0.0 | 0.00 | 0.27 | 0.00 | 86 | 1016.0 |
| 20260506083525 | 45 | 0 | 0.0 | 0.0 | 0.00 | 0.27 | 0.00 | 86 | 1016.0 |
| 20260506083039 | 45 | 0 | 0.0 | 0.0 | 0.00 | 0.27 | 0.00 | 86 | 1016.1 |
| 20260506082523 | 45 | 0 | 0.0 | 0.0 | 0.00 | 0.27 | 0.00 | 86 | 1016.1 |
| 20260506082023 | 45 | 0 | 0.0 | 0.0 | 0.00 | 0.27 | 0.00 | 85 | 1016.1 |
| 20260506081536 | 45 | 0 | 0.0 | 0.0 | 0.00 | 0.27 | 0.00 | 85 | 1016.1 |
| 20260506081023 | 45 | 0 | 0.0 | 0.0 | 0.00 | 0.27 | 0.00 | 85 | 1016.2 |
| 20260506080522 | 45 | 0 | 0.0 | 0.0 | 0.00 | 0.27 | 0.00 | 85 | 1016.1 |
| 20260506073524 | 45 | 0 | 0.0 | 0.0 | 0.00 | 0.34 | 0.00 | 82 | 1015.4 |
| 20260506073037 | 46 | 0 | 0.0 | 0.0 | 0.00 | 0.34 | 0.00 | 82 | 1015.3 |
| 20260506072523 | 46 | 0 | 0.0 | 0.0 | 0.00 | 0.34 | 0.00 | 82 | 1015.2 |
| 20260506072023 | 46 | 0 | 0.0 | 0.0 | 0.00 | 0.34 | 0.00 | 82 | 1015.4 |
| 20260506071535 | 46 | 0 | 0.0 | 0.0 | 0.00 | 0.34 | 0.00 | 81 | 1015.3 |
| 20260506071024 | 46 | 0 | 0.0 | 2.6 | 0.00 | 0.34 | 0.00 | 81 | 1015.3 |
| 20260506070523 | 46 | 0 | 0.0 | 2.6 | 0.00 | 0.34 | 0.00 | 81 | 1015.4 |
| 20260506062024 | 46 | 0 | 0.0 | 4.3 | 0.00 | 0.43 | 0.00 | 80 | 1015.7 |
| 20260506061535 | 46 | 0 | 0.0 | 4.3 | 0.00 | 0.43 | 0.00 | 79 | 1015.9 |
| 20260506061022 | 46 | 55 | 0.9 | 4.3 | 0.00 | 0.43 | 0.00 | 79 | 1015.9 |
| 20260506060524 | 46 | 27 | 0.9 | 5.2 | 0.00 | 0.43 | 0.00 | 78 | 1016.0 |
| 20260506051024 | 47 | 5 | 1.7 | 9.6 | 0.00 | 0.47 | 0.00 | 76 | 1016.2 |
| 20260506050526 | 48 | 0 | 1.7 | 9.6 | 0.00 | 0.47 | 0.00 | 75 | 1016.3 |
| 20260506045024 | 48 | 0 | 0.0 | 4.3 | 0.00 | 0.79 | 0.47 | 73 | 1016.1 |
| 20260506044544 | 48 | 0 | 0.0 | 7.0 | 0.00 | 0.79 | 0.47 | 72 | 1016.1 |
| 20260506044025 | 48 | 5 | 0.0 | 9.6 | 0.00 | 0.79 | 0.47 | 70 | 1016.1 |
| 20260506043525 | 49 | 0 | 1.7 | 9.6 | 0.00 | 0.79 | 0.47 | 69 | 1016.1 |
| 20260506043035 | 49 | 355 | 2.6 | 9.6 | 0.00 | 0.79 | 0.47 | 67 | 1016.1 |
| 20260506042528 | 50 | 0 | 3.5 | 10.4 | 0.00 | 0.79 | 0.47 | 67 | 1016.2 |
| 20260506042022 | 50 | 0 | 2.6 | 10.4 | 0.00 | 0.79 | 0.47 | 64 | 1016.1 |
| 20260506041536 | 50 | 337 | 4.3 | 11.3 | 0.00 | 0.79 | 0.47 | 63 | 1016.0 |
| 20260506041024 | 50 | 338 | 2.6 | 11.3 | 0.00 | 0.79 | 0.47 | 63 | 1015.8 |
| 20260506040525 | 50 | 360 | 0.9 | 8.7 | 0.00 | 0.79 | 0.47 | 63 | 1015.8 |
| 20260506040036 | 50 | 19 | 1.7 | 12.2 | 0.00 | 0.79 | 0.47 | 63 | 1015.8 |
| 20260506035528 | 51 | 15 | 2.6 | 12.2 | 0.00 | 0.79 | 0.47 | 63 | 1016.0 |
| 20260506035025 | 51 | 348 | 2.6 | 13.0 | 0.00 | 0.79 | 0.47 | 62 | 1015.8 |
| 20260506034538 | 51 | 360 | 5.2 | 13.0 | 0.00 | 0.79 | 0.47 | 63 | 1015.8 |
| 20260506034026 | 51 | 272 | 0.0 | 11.3 | 0.00 | 0.79 | 0.47 | 66 | 1015.5 |
| 20260506033525 | 50 | 267 | 1.7 | 11.3 | 0.00 | 0.79 | 0.47 | 68 | 1015.2 |
| 20260506033039 | 50 | 0 | 0.9 | 4.3 | 0.00 | 0.79 | 0.47 | 69 | 1014.9 |
| 20260506032525 | 50 | 0 | 0.0 | 2.6 | 0.00 | 0.79 | 0.47 | 70 | 1014.7 |
| 20260506032026 | 50 | 0 | 0.0 | 0.0 | 0.00 | 0.79 | 0.47 | 70 | 1014.6 |
| 20260506031538 | 50 | 0 | 0.0 | 0.0 | 0.00 | 0.79 | 0.47 | 70 | 1014.7 |
| 20260506031025 | 51 | 0 | 0.0 | 2.6 | 0.00 | 0.79 | 0.47 | 70 | 1014.5 |
| 20260506030529 | 51 | 0 | 0.0 | 2.6 | 0.00 | 0.79 | 0.47 | 69 | 1014.3 |
| 20260506030055 | 51 | 0 | 0.0 | 5.2 | 0.00 | 0.79 | 0.47 | 68 | 1014.2 |
| 20260506025525 | 51 | 0 | 0.0 | 6.1 | 0.00 | 0.79 | 0.47 | 67 | 1014.2 |
| 20260506025029 | 51 | 0 | 0.0 | 6.1 | 0.00 | 0.79 | 0.47 | 67 | 1014.0 |
| 20260506024547 | 51 | 336 | 0.0 | 7.8 | 0.00 | 0.79 | 0.47 | 67 | 1014.1 |
| 20260506024023 | 51 | 0 | 0.9 | 7.8 | 0.00 | 0.79 | 0.47 | 67 | 1013.8 |
| 20260506023525 | 51 | 11 | 0.0 | 7.8 | 0.00 | 0.79 | 0.47 | 67 | 1013.8 |
| 20260506023039 | 51 | 0 | 2.6 | 7.8 | 0.00 | 0.79 | 0.47 | 67 | 1013.7 |
| 20260506022525 | 51 | 5 | 0.9 | 7.0 | 0.00 | 0.79 | 0.47 | 68 | 1013.4 |
| 20260506022021 | 51 | 0 | 1.7 | 7.0 | 0.00 | 0.79 | 0.47 | 68 | 1013.5 |
| 20260506021537 | 51 | 0 | 0.9 | 7.0 | 0.00 | 0.79 | 0.47 | 68 | 1013.4 |
| 20260506021022 | 51 | 0 | 0.0 | 1.7 | 0.00 | 0.79 | 0.47 | 68 | 1013.5 |
| 20260506020527 | 51 | 0 | 0.0 | 1.7 | 0.00 | 0.79 | 0.47 | 67 | 1013.3 |
| 20260506020035 | 51 | 0 | 0.0 | 4.3 | 0.00 | 0.79 | 0.47 | 67 | 1013.2 |
| 20260506015524 | 52 | 0 | 0.0 | 4.3 | 0.00 | 0.79 | 0.47 | 67 | 1013.1 |
| 20260506015024 | 52 | 355 | 0.0 | 0.0 | 0.00 | 0.79 | 0.47 | 68 | 1012.8 |
| 20260506014543 | 52 | 0 | 0.0 | 0.0 | 0.00 | 0.79 | 0.47 | 67 | 1012.8 |
| 20260506014023 | 52 | 0 | 0.0 | 0.0 | 0.00 | 0.79 | 0.47 | 65 | 1012.7 |
| 20260506013523 | 52 | 0 | 0.0 | 1.7 | 0.00 | 0.79 | 0.47 | 64 | 1012.6 |
| 20260506013036 | 52 | 0 | 0.0 | 1.7 | 0.00 | 0.79 | 0.47 | 63 | 1012.7 |
| 20260506012521 | 53 | 0 | 0.0 | 4.3 | 0.00 | 0.79 | 0.47 | 63 | 1012.5 |
| 20260506012023 | 53 | 5 | 0.0 | 4.3 | 0.00 | 0.79 | 0.47 | 62 | 1012.5 |
| 20260506011538 | 53 | 0 | 0.0 | 3.5 | 0.00 | 0.79 | 0.47 | 65 | 1012.7 |
| 20260506011023 | 53 | 0 | 0.0 | 7.0 | 0.00 | 0.79 | 0.47 | 65 | 1012.6 |
| 20260506010523 | 53 | 0 | 0.0 | 7.0 | 0.00 | 0.79 | 0.47 | 67 | 1012.7 |
| 20260506010045 | 53 | 360 | 0.0 | 0.9 | 0.00 | 0.79 | 0.47 | 73 | 1012.6 |
| 20260506005522 | 53 | 0 | 0.0 | 0.0 | 0.00 | 0.79 | 0.47 | 78 | 1012.5 |
| 20260506005023 | 53 | 0 | 0.0 | 0.0 | 0.00 | 0.79 | 0.47 | 80 | 1012.6 |
| 20260506004546 | 53 | 0 | 0.0 | 0.0 | 0.00 | 0.79 | 0.47 | 79 | 1012.5 |
| 20260506004024 | 53 | 0 | 0.0 | 0.9 | 0.00 | 0.79 | 0.47 | 79 | 1012.3 |
| 20260506003523 | 53 | 0 | 0.0 | 0.9 | 0.00 | 0.79 | 0.47 | 79 | 1012.2 |
| 20260506003040 | 53 | 0 | 0.0 | 0.0 | 0.00 | 0.79 | 0.47 | 78 | 1012.3 |
| 20260506002522 | 53 | 0 | 0.0 | 1.7 | 0.00 | 0.79 | 0.47 | 78 | 1012.3 |
| 20260506002023 | 53 | 0 | 0.0 | 1.7 | 0.00 | 0.79 | 0.47 | 78 | 1012.0 |
| 20260506001535 | 53 | 0 | 0.0 | 1.7 | 0.00 | 0.79 | 0.47 | 78 | 1012.2 |
| 20260506001023 | 53 | 0 | 0.0 | 1.7 | 0.00 | 0.79 | 0.47 | 78 | 1012.3 |
| 20260506000524 | 53 | 355 | 0.0 | 0.0 | 0.00 | 0.79 | 0.47 | 78 | 1012.4 |
| 20260506000038 | 53 | 0 | 0.0 | 0.0 | 0.00 | 0.79 | 0.47 | 78 | 1012.3 |
| 20260505235524 | 53 | 0 | 0.0 | 0.0 | 0.00 | 0.79 | 0.47 | 77 | 1012.3 |
| 20260505235024 | 53 | 0 | 0.0 | 0.0 | 0.00 | 0.79 | 0.47 | 77 | 1012.1 |
| 20260505234536 | 53 | 0 | 0.0 | 0.0 | 0.00 | 0.79 | 0.47 | 76 | 1012.2 |
| 20260505234024 | 53 | 0 | 0.0 | 0.0 | 0.00 | 0.79 | 0.47 | 76 | 1012.4 |
| 20260505233524 | 53 | 0 | 0.0 | 0.0 | 0.00 | 0.79 | 0.47 | 77 | 1012.5 |
| 20260505233035 | 53 | 0 | 0.0 | 0.0 | 0.00 | 0.79 | 0.47 | 76 | 1012.4 |
| 20260505232521 | 53 | 0 | 0.0 | 0.0 | 0.00 | 0.79 | 0.47 | 76 | 1012.3 |
| 20260505232021 | 53 | 0 | 0.0 | 0.0 | 0.00 | 0.79 | 0.47 | 76 | 1012.3 |
| 20260505231535 | 53 | 0 | 0.0 | 0.0 | 0.00 | 0.79 | 0.47 | 76 | 1012.2 |
| 20260505231023 | 53 | 0 | 0.0 | 0.0 | 0.00 | 0.79 | 0.47 | 75 | 1012.3 |
| 20260505230537 | 53 | 0 | 0.0 | 0.0 | 0.00 | 0.79 | 0.47 | 75 | 1012.3 |
| 20260505230047 | 53 | 0 | 0.0 | 0.0 | 0.00 | 0.79 | 0.47 | 75 | 1012.3 |
| 20260505225522 | 53 | 0 | 0.0 | 0.0 | 0.00 | 0.79 | 0.47 | 76 | 1012.4 |
| 20260505225026 | 53 | 0 | 0.0 | 0.0 | 0.00 | 0.79 | 0.47 | 76 | 1012.5 |
| 20260505224537 | 52 | 0 | 0.0 | 1.7 | 0.00 | 0.79 | 0.47 | 75 | 1012.4 |
| 20260505224022 | 52 | 0 | 0.0 | 3.5 | 0.00 | 0.79 | 0.47 | 76 | 1012.4 |
| 20260505223521 | 52 | 0 | 0.0 | 3.5 | 0.00 | 0.79 | 0.47 | 75 | 1012.3 |
| 20260505223036 | 52 | 0 | 0.0 | 4.3 | 0.00 | 0.79 | 0.47 | 75 | 1012.2 |
| 20260505222522 | 52 | 0 | 0.0 | 4.3 | 0.00 | 0.79 | 0.47 | 75 | 1012.1 |
| 20260505222024 | 52 | 13 | 0.0 | 4.3 | 0.00 | 0.79 | 0.47 | 75 | 1012.1 |
| 20260505221536 | 52 | 40 | 0.0 | 3.5 | 0.00 | 0.79 | 0.47 | 76 | 1012.2 |
| 20260505221023 | 52 | 46 | 0.0 | 3.5 | 0.00 | 0.79 | 0.47 | 75 | 1012.2 |
| 20260505220521 | 52 | 0 | 0.0 | 2.6 | 0.00 | 0.79 | 0.47 | 75 | 1012.3 |
| 20260505220041 | 52 | 0 | 0.0 | 1.7 | 0.00 | 0.79 | 0.47 | 75 | 1012.3 |
| 20260505215525 | 52 | 5 | 0.0 | 3.5 | 0.00 | 0.79 | 0.47 | 74 | 1012.3 |
| 20260505215025 | 52 | 0 | 0.0 | 3.5 | 0.00 | 0.79 | 0.47 | 75 | 1012.2 |
| 20260505214536 | 52 | 0 | 0.0 | 3.5 | 0.00 | 0.79 | 0.47 | 74 | 1012.3 |
| 20260505214023 | 52 | 0 | 0.0 | 3.5 | 0.00 | 0.79 | 0.47 | 75 | 1012.3 |
| 20260505213527 | 52 | 315 | 0.9 | 3.5 | 0.00 | 0.79 | 0.47 | 74 | 1012.4 |
| 20260505213043 | 52 | 9 | 0.0 | 4.3 | 0.00 | 0.79 | 0.47 | 75 | 1012.5 |
| 20260505212526 | 52 | 0 | 0.0 | 4.3 | 0.00 | 0.79 | 0.47 | 73 | 1012.3 |
| 20260505212024 | 52 | 19 | 1.7 | 4.3 | 0.00 | 0.79 | 0.47 | 74 | 1012.4 |
| 20260505211541 | 52 | 0 | 0.0 | 4.3 | 0.00 | 0.79 | 0.47 | 75 | 1012.5 |
| 20260505211024 | 52 | 25 | 0.0 | 4.3 | 0.00 | 0.79 | 0.47 | 75 | 1012.5 |
| 20260505210521 | 52 | 0 | 0.9 | 4.3 | 0.00 | 0.79 | 0.47 | 75 | 1012.4 |
| 20260505210036 | 52 | 38 | 0.0 | 5.2 | 0.00 | 0.79 | 0.47 | 75 | 1012.5 |
| 20260505205525 | 52 | 0 | 0.0 | 7.0 | 0.00 | 0.79 | 0.47 | 75 | 1012.5 |
| 20260505205021 | 51 | 5 | 1.7 | 8.7 | 0.00 | 0.79 | 0.47 | 76 | 1012.5 |
| 20260505204537 | 51 | 360 | 0.9 | 8.7 | 0.00 | 0.79 | 0.47 | 78 | 1012.5 |
| 20260505204027 | 51 | 5 | 1.7 | 7.8 | 0.00 | 0.79 | 0.47 | 80 | 1012.5 |
| 20260505203521 | 51 | 0 | 0.0 | 4.3 | 0.00 | 0.79 | 0.47 | 82 | 1012.5 |
| 20260505203041 | 51 | 0 | 0.0 | 4.3 | 0.00 | 0.79 | 0.47 | 82 | 1012.5 |
| 20260505202523 | 51 | 0 | 0.0 | 2.6 | 0.00 | 0.79 | 0.47 | 81 | 1012.7 |
| 20260505202023 | 51 | 0 | 0.0 | 2.6 | 0.00 | 0.79 | 0.47 | 81 | 1012.9 |
| 20260505201537 | 51 | 0 | 0.0 | 2.6 | 0.00 | 0.79 | 0.47 | 82 | 1012.7 |
| 20260505201021 | 51 | 0 | 0.0 | 4.3 | 0.00 | 0.79 | 0.47 | 84 | 1012.9 |
| 20260505200522 | 50 | 0 | 0.0 | 4.3 | 0.00 | 0.79 | 0.47 | 82 | 1012.8 |
| 20260505200038 | 50 | 33 | 0.0 | 3.5 | 0.00 | 0.79 | 0.47 | 83 | 1012.9 |
| 20260505195528 | 50 | 0 | 0.0 | 4.3 | 0.00 | 0.79 | 0.47 | 83 | 1013.0 |
| 20260505195024 | 50 | 0 | 1.7 | 4.3 | 0.00 | 0.79 | 0.47 | 83 | 1013.0 |
| 20260505194535 | 50 | 0 | 0.0 | 4.3 | 0.00 | 0.79 | 0.47 | 84 | 1013.0 |
| 20260505194024 | 50 | 0 | 0.0 | 3.5 | 0.00 | 0.79 | 0.47 | 83 | 1012.9 |
| 20260505193527 | 50 | 0 | 0.0 | 3.5 | 0.00 | 0.79 | 0.47 | 85 | 1013.1 |
| 20260505193052 | 49 | 35 | 0.9 | 4.3 | 0.00 | 0.79 | 0.47 | 85 | 1013.1 |
| 20260505192524 | 49 | 0 | 0.9 | 7.0 | 0.00 | 0.79 | 0.47 | 85 | 1013.0 |
| 20260505192024 | 49 | 32 | 0.9 | 7.0 | 0.00 | 0.79 | 0.47 | 85 | 1013.0 |
| 20260505191542 | 49 | 27 | 0.0 | 4.3 | 0.01 | 0.79 | 0.47 | 86 | 1013.0 |
| 20260505191025 | 49 | 0 | 0.0 | 4.3 | 0.01 | 0.79 | 0.47 | 86 | 1012.8 |
| 20260505190525 | 49 | 0 | 0.9 | 4.3 | 0.01 | 0.79 | 0.47 | 87 | 1012.7 |
| 20260505190042 | 49 | 0 | 0.0 | 0.9 | 0.01 | 0.79 | 0.47 | 86 | 1012.7 |
| 20260505185523 | 49 | 0 | 0.0 | 3.5 | 0.01 | 0.79 | 0.47 | 87 | 1012.6 |
| 20260505185027 | 49 | 0 | 0.0 | 3.5 | 0.01 | 0.79 | 0.47 | 87 | 1012.8 |
| 20260505184535 | 49 | 65 | 0.0 | 3.5 | 0.01 | 0.79 | 0.47 | 87 | 1012.8 |
| 20260505184025 | 48 | 0 | 0.0 | 0.9 | 0.02 | 0.79 | 0.47 | 87 | 1012.8 |
| 20260505183525 | 48 | 0 | 0.0 | 1.7 | 0.02 | 0.79 | 0.47 | 87 | 1013.0 |
| 20260505183037 | 48 | 0 | 0.0 | 1.7 | 0.02 | 0.79 | 0.47 | 87 | 1013.0 |
| 20260505182523 | 48 | 0 | 0.0 | 0.0 | 0.03 | 0.79 | 0.47 | 87 | 1013.0 |
| 20260505182025 | 48 | 0 | 0.0 | 2.6 | 0.03 | 0.79 | 0.47 | 87 | 1013.3 |
| 20260505181536 | 48 | 0 | 0.0 | 3.5 | 0.04 | 0.78 | 0.46 | 87 | 1013.3 |
| 20260505181024 | 48 | 0 | 0.0 | 6.1 | 0.05 | 0.78 | 0.46 | 87 | 1013.3 |
| 20260505180524 | 48 | 59 | 0.0 | 6.1 | 0.05 | 0.78 | 0.46 | 87 | 1013.4 |
| 20260505180045 | 48 | 12 | 0.0 | 5.2 | 0.05 | 0.78 | 0.46 | 87 | 1013.4 |
| 20260505175528 | 48 | 0 | 0.0 | 3.5 | 0.05 | 0.78 | 0.46 | 88 | 1013.6 |
| 20260505175024 | 48 | 0 | 0.0 | 3.5 | 0.05 | 0.78 | 0.46 | 88 | 1013.5 |
| 20260505174538 | 48 | 38 | 0.0 | 3.5 | 0.05 | 0.78 | 0.46 | 88 | 1013.8 |
| 20260505174025 | 47 | 0 | 0.0 | 3.5 | 0.04 | 0.77 | 0.45 | 88 | 1013.7 |
| 20260505173527 | 48 | 0 | 0.0 | 3.5 | 0.05 | 0.77 | 0.45 | 88 | 1013.6 |
| 20260505173035 | 48 | 0 | 0.0 | 0.0 | 0.05 | 0.77 | 0.45 | 88 | 1013.8 |
| 20260505172524 | 48 | 0 | 0.0 | 0.0 | 0.05 | 0.76 | 0.44 | 88 | 1013.8 |
| 20260505172024 | 47 | 0 | 0.0 | 0.0 | 0.04 | 0.75 | 0.43 | 88 | 1013.8 |
| 20260505171541 | 47 | 0 | 0.0 | 0.9 | 0.03 | 0.74 | 0.42 | 88 | 1013.6 |
| 20260505171025 | 47 | 0 | 0.0 | 0.9 | 0.02 | 0.73 | 0.41 | 88 | 1013.6 |
| 20260505170524 | 47 | 48 | 0.0 | 1.7 | 0.02 | 0.73 | 0.41 | 88 | 1013.5 |
| 20260505170050 | 48 | 0 | 0.0 | 1.7 | 0.02 | 0.73 | 0.41 | 88 | 1013.5 |
| 20260505165523 | 48 | 0 | 0.0 | 0.9 | 0.02 | 0.73 | 0.41 | 88 | 1013.5 |
| 20260505165023 | 47 | 0 | 0.0 | 0.9 | 0.02 | 0.73 | 0.41 | 88 | 1013.4 |
| 20260505164540 | 47 | 0 | 0.0 | 1.7 | 0.02 | 0.73 | 0.41 | 88 | 1013.6 |
| 20260505164024 | 47 | 0 | 0.0 | 2.6 | 0.02 | 0.73 | 0.41 | 88 | 1013.5 |
| 20260505163520 | 47 | 0 | 0.0 | 2.6 | 0.01 | 0.72 | 0.40 | 88 | 1013.5 |
| 20260505163041 | 47 | 0 | 0.0 | 1.7 | 0.02 | 0.72 | 0.40 | 88 | 1013.4 |
| 20260505162523 | 47 | 0 | 0.0 | 1.7 | 0.01 | 0.71 | 0.39 | 88 | 1013.4 |
| 20260505162022 | 47 | 0 | 0.0 | 1.7 | 0.02 | 0.71 | 0.39 | 87 | 1013.4 |
| 20260505161536 | 47 | 0 | 0.0 | 2.6 | 0.02 | 0.71 | 0.39 | 88 | 1013.5 |
| 20260505161023 | 47 | 0 | 0.0 | 3.5 | 0.02 | 0.71 | 0.39 | 87 | 1013.6 |